Beaver Island, MI

12:25 AM EDT on April 30, 2017 (GMT -0400)
Beaver Island

Weather History for KSJX - November, 2011

Change the Weather History Date:

Monday, November 21, 2011

  Actual Average Record
Temperature  
Mean Temperature 29 °F -  
Max Temperature 35 °F 38 °F 55 °F (1953)
Min Temperature 23 °F 28 °F 15 °F (1964)
Degree Days  
Heating Degree Days 36    
Moisture  
Dew Point 25 °F    
Average Humidity 80    
Maximum Humidity 87    
Minimum Humidity 69    
Precipitation  
Precipitation 0.00 in - - ()
Sea Level Pressure  
Sea Level Pressure 30.35 in    
Wind  
Wind Speed 1 mph (SSW)    
Max Wind Speed 8 mph    
Max Gust Speed -    
Visibility 10 miles    
Events      
Averages and records for this station are not official NWS values.
T = Trace of Precipitation, MM = Missing Value Source: NWS Daily Summary

Daily Weather History Graph

Daily Weather History Graph

Search for Another Location

Airport or City:

Trip Planner

Search our weather history database for the weather conditions in past years. The results will help you decide how hot, cold, wet, or windy it might be!

Date:

Astronomy

Nov. 21, 2011 Rise Set
Actual Time 7:49 AM EST 5:06 PM EST
Civil Twilight 7:16 AM EST 5:38 PM EST
Nautical Twilight 6:40 AM EST 6:15 PM EST
Astronomical Twilight 6:05 AM EST 6:50 PM EST
Moon 3:16 AM EST (11/21) 2:37 PM EST (11/21)
Length of Visible Light 10h 21m
Length of Day
9h 16m
Waning Crescent, 18% of the Moon is Illuminated
Nov 21
Waning Crescent
Nov 25
New
Dec 2
First Quarter
Dec 10
Full
Dec 17
Last Quarter

Hourly Weather History & Observations

Time (EST) Temp. Windchill Dew Point Humidity Pressure Visibility Wind Dir Wind Speed Gust Speed Precip Events Conditions
12:15 AM 26.6 °F - 17.6 °F 69% 30.36 in 10.0 mi Calm Calm - N/A   Scattered Clouds
12:36 AM 26.6 °F - 17.6 °F 69% 30.37 in 10.0 mi Calm Calm - N/A   Scattered Clouds
12:55 AM 24.8 °F - 19.4 °F 80% 30.37 in 10.0 mi Calm Calm - N/A   Mostly Cloudy
1:15 AM 24.8 °F - 19.4 °F 80% 30.37 in 10.0 mi Calm Calm - N/A   Mostly Cloudy
1:36 AM 23.0 °F - 17.6 °F 80% 30.36 in 10.0 mi Calm Calm - N/A   Mostly Cloudy
1:55 AM 23.0 °F - 19.4 °F 86% 30.36 in 10.0 mi Calm Calm - N/A   Mostly Cloudy
2:15 AM 23.0 °F - 19.4 °F 86% 30.36 in 10.0 mi Calm Calm - N/A   Clear
2:35 AM 23.0 °F - 19.4 °F 86% 30.36 in 10.0 mi Calm Calm - N/A   Mostly Cloudy
2:55 AM 23.0 °F - 19.4 °F 86% 30.36 in 10.0 mi Calm Calm - N/A   Overcast
3:35 AM 24.8 °F - 21.2 °F 86% 30.36 in 10.0 mi Calm Calm - N/A   Overcast
3:55 AM 26.6 °F - 21.2 °F 80% 30.37 in 10.0 mi Calm Calm - N/A   Overcast
4:16 AM 26.6 °F - 21.2 °F 80% 30.37 in 10.0 mi Calm Calm - N/A   Overcast
4:35 AM 28.4 °F - 23.0 °F 80% 30.36 in 10.0 mi Calm Calm - N/A   Overcast
4:55 AM 28.4 °F - 23.0 °F 80% 30.37 in 10.0 mi Calm Calm - N/A   Overcast
5:16 AM 28.4 °F - 23.0 °F 80% 30.37 in 10.0 mi Calm Calm - N/A   Overcast
5:35 AM 28.4 °F - 23.0 °F 80% 30.37 in 10.0 mi Calm Calm - N/A   Overcast
5:56 AM 28.4 °F - 23.0 °F 80% 30.37 in 10.0 mi Calm Calm - N/A   Overcast
6:15 AM 28.4 °F - 23.0 °F 80% 30.38 in 10.0 mi Calm Calm - N/A   Overcast
6:36 AM 28.4 °F - 23.0 °F 80% 30.38 in 10.0 mi Calm Calm - N/A   Overcast
6:56 AM 28.4 °F - 23.0 °F 80% 30.37 in 10.0 mi Calm Calm - N/A   Overcast
7:15 AM 28.4 °F - 23.0 °F 80% 30.38 in 10.0 mi Calm Calm - N/A   Overcast
7:36 AM 30.2 °F - 23.0 °F 75% 30.37 in 10.0 mi Calm Calm - N/A   Overcast
7:56 AM 30.2 °F - 23.0 °F 75% 30.37 in 10.0 mi Calm Calm - N/A   Overcast
8:15 AM 30.2 °F 26.7 °F 23.0 °F 75% 30.38 in 10.0 mi East 3.5 mph - N/A   Overcast
8:36 AM 30.2 °F - 24.8 °F 80% 30.38 in 10.0 mi Calm Calm - N/A   Overcast
9:15 AM 32.0 °F 27.5 °F 26.6 °F 80% 30.38 in 10.0 mi ESE 4.6 mph - N/A   Overcast
9:36 AM 32.0 °F 28.7 °F 26.6 °F 80% 30.38 in 10.0 mi SE 3.5 mph - N/A   Overcast
9:55 AM 32.0 °F - 26.6 °F 80% 30.38 in 10.0 mi Calm Calm - N/A   Overcast
10:16 AM 32.0 °F 28.7 °F 26.6 °F 80% 30.38 in 10.0 mi SE 3.5 mph - N/A   Overcast
10:35 AM 32.0 °F 24.8 °F 26.6 °F 80% 30.38 in 10.0 mi SSE 8.1 mph - N/A   Overcast
10:55 AM 32.0 °F 25.6 °F 26.6 °F 80% 30.37 in 10.0 mi SE 6.9 mph - N/A   Overcast
11:16 AM 32.0 °F 24.8 °F 26.6 °F 80% 30.36 in 10.0 mi SSE 8.1 mph - N/A   Overcast
11:35 AM 33.8 °F 30.8 °F 28.4 °F 81% 30.36 in 10.0 mi SSE 3.5 mph - N/A   Overcast
11:55 AM 33.8 °F 30.8 °F 28.4 °F 81% 30.35 in 10.0 mi SW 3.5 mph - N/A   Overcast
12:16 PM 33.8 °F - 28.4 °F 81% 30.34 in 10.0 mi Calm Calm - N/A   Overcast
12:35 PM 33.8 °F - 28.4 °F 81% 30.33 in 10.0 mi Calm Calm - N/A   Overcast
12:55 PM 35.6 °F 32.8 °F 28.4 °F 75% 30.33 in 10.0 mi West 3.5 mph - N/A   Overcast
1:16 PM 33.8 °F - 28.4 °F 81% 30.32 in 10.0 mi Calm Calm - N/A   Overcast
1:35 PM 33.8 °F - 28.4 °F 81% 30.31 in 10.0 mi Calm Calm - N/A   Overcast
1:55 PM 35.6 °F 29.9 °F 28.4 °F 75% 30.31 in 10.0 mi West 6.9 mph - N/A   Overcast
2:16 PM 33.8 °F 30.8 °F 28.4 °F 81% 30.31 in 10.0 mi SW 3.5 mph - N/A   Overcast
2:35 PM 33.8 °F 29.6 °F 28.4 °F 81% 30.31 in 10.0 mi SW 4.6 mph - N/A   Overcast
2:56 PM 33.8 °F 29.6 °F 30.2 °F 87% 30.30 in 10.0 mi WSW 4.6 mph - N/A   Overcast
3:15 PM 33.8 °F - 30.2 °F 87% 30.30 in 5.0 mi Calm Calm - N/A   Haze
3:35 PM 33.8 °F - 30.2 °F 87% 30.30 in 10.0 mi Calm Calm - N/A   Overcast
3:56 PM 33.8 °F 28.6 °F 28.4 °F 81% 30.30 in 10.0 mi West 5.8 mph - N/A   Overcast
4:15 PM 35.6 °F 30.7 °F 28.4 °F 75% 30.30 in 10.0 mi WSW 5.8 mph - N/A   Overcast
4:35 PM 35.6 °F 29.9 °F 28.4 °F 75% 30.31 in 10.0 mi WSW 6.9 mph - N/A   Overcast
4:56 PM 33.8 °F 27.7 °F 28.4 °F 81% 30.30 in 10.0 mi WSW 6.9 mph - N/A   Overcast
5:15 PM 33.8 °F 30.8 °F 28.4 °F 81% 30.30 in 10.0 mi WSW 3.5 mph - N/A   Overcast
5:35 PM 33.8 °F - 28.4 °F 81% 30.30 in 10.0 mi Calm Calm - N/A   Overcast
5:56 PM 35.6 °F 31.7 °F 28.4 °F 75% 30.30 in 10.0 mi West 4.6 mph - N/A   Overcast
6:15 PM 35.6 °F 32.8 °F 28.4 °F 75% 30.31 in 10.0 mi SW 3.5 mph - N/A   Overcast
6:35 PM 35.6 °F - 28.4 °F 75% 30.31 in 10.0 mi Calm Calm - N/A   Overcast
6:56 PM 35.6 °F - 28.4 °F 75% 30.30 in 10.0 mi Calm Calm - N/A   Overcast
7:15 PM 33.8 °F - 28.4 °F 81% 30.31 in 10.0 mi Calm Calm - N/A   Overcast
7:35 PM 33.8 °F - 28.4 °F 81% 30.31 in 10.0 mi Calm Calm - N/A   Overcast
7:56 PM 33.8 °F - 28.4 °F 81% 30.31 in 10.0 mi Calm Calm - N/A   Overcast
8:15 PM 33.8 °F - 28.4 °F 81% 30.31 in 10.0 mi Calm Calm - N/A   Overcast
8:36 PM 33.8 °F 30.8 °F 28.4 °F 81% 30.33 in 10.0 mi WSW 3.5 mph - N/A   Overcast
8:56 PM 33.8 °F - 28.4 °F 81% 30.33 in 10.0 mi Calm Calm - N/A   Overcast
9:15 PM 35.6 °F - 28.4 °F 75% 30.32 in 10.0 mi Calm Calm - N/A   Overcast
9:36 PM 33.8 °F - 30.2 °F 87% 30.33 in 10.0 mi Calm Calm - N/A   Overcast
9:55 PM 33.8 °F - 30.2 °F 87% 30.32 in 10.0 mi Calm Calm - N/A   Overcast
10:15 PM 33.8 °F - 30.2 °F 87% 30.32 in 10.0 mi Calm Calm - N/A   Overcast
10:36 PM 33.8 °F - 30.2 °F 87% 30.32 in 10.0 mi Calm Calm - N/A   Overcast
10:55 PM 33.8 °F - 30.2 °F 87% 30.32 in 10.0 mi Calm Calm - N/A   Overcast
11:15 PM 33.8 °F - 30.2 °F 87% 30.32 in 10.0 mi Calm Calm - N/A   Overcast
11:36 PM 33.8 °F - 30.2 °F 87% 30.32 in 10.0 mi Calm Calm - N/A   Overcast
11:55 PM 33.8 °F - 30.2 °F 87% 30.32 in 10.0 mi Calm Calm - N/A   Overcast